Find Starlink 35124

NORAD ID: 65511 Int'l Des: 2025-198 Owner: SPXS Country: US Constellation: starlink operational
LEOCIRCULAR

当前视图

正在加载3D地球...

关于 Starlink 35124

正在加载描述...

即将过境

Passes for default location (London). Set your location on the main map for personalized predictions.

高度历史

Loading altitude history...

两行轨道根数

1 65511U 25198V 26149.71511244 .00032400 00000-0 96523-3 0 9997
2 65511 53.1584 253.3508 0000977 104.2876 255.8235 15.34422263 41033
Epoch: May 29, 2026 • Age: 21 hours

当前状态

高度 462.6 km
速度 7.64 km/s
星下点 4.61°N, 35.91°W
发射日期 Sep 5, 2025
运行时间 0.7 years
类型 internet

技术详情

分类 Payload
质量 575.00 kg
干质量 530.00 kg
总质量 575.00 kg
长度 0.30 m
直径 4.10 m
跨度 29.00 m
形状 Box + pan
制造商 SPXS
平台类型 Starlink V2MO
阶段状态 In Orbit
所有者/国家 SPXS/US

Most Searched